This demonstration page uses our WeatherBlox Daily Observations layout. Learn more.

Left ArrowRight Arrow

36.19886, -115.1175

Hourly Observations for February 7, 2022

Temp ( °F °C ) Dew Point ( °F °C ) Humidity (%) Winds ( mph kmh ) Pressure ( in mb ) Visibility ( mi km ) Precip ( " mm )
12:53 am 00:53 Clear 46 7.8 14 -10 27 27 W 7 11 30.48 1032 10 16 0.00 0.00
1:53 am 01:53 Clear 45 7.2 14 -10 29 29 W 3 6 30.47 1032 10 16 0.00 0.00
2:53 am 02:53 Clear 45 7.2 14 -10 29 29 WNW 6 9 30.47 1032 10 16 0.00 0.00
3:53 am 03:53 Clear 49 9.4 8 -13.3 19 19 NNW 7 11 30.46 1032 10 16 0.00 0.00
4:53 am 04:53 Clear 46 7.8 9 -12.8 22 22 WNW 6 9 30.47 1032 10 16 0.00 0.00
5:53 am 05:53 Clear 43 6.1 10 -12.2 26 26 SE 5 7 30.48 1032 10 16 0.00 0.00
6:53 am 06:53 Sunny 44 6.7 10 -12.2 25 25 Calm 30.50 1033 10 16 0.00 0.00
7:53 am 07:53 Sunny 49 9.4 10 -12.2 21 21 WNW 7 11 30.52 1033 10 16 0.00 0.00
8:53 am 08:53 Sunny 53 11.7 11 -11.7 18 18 W 5 7 30.53 1034 10 16 0.00 0.00
9:53 am 09:53 Sunny 55 12.8 11 -11.7 17 17 ESE 3 6 30.53 1034 10 16 0.00 0.00
10:53 am 10:53 Sunny 58 14.4 12 -11.1 16 16 SE 5 7 30.52 1033 10 16 0.00 0.00
11:53 am 11:53 Sunny 61 16.1 13 -10.6 15 15 S 6 9 30.48 1032 10 16 0.00 0.00
12:53 pm 12:53 Sunny 63 17.2 14 -10 15 15 VRB 3 6 30.43 1031 10 16 0.00 0.00
1:53 pm 13:53 Sunny 64 17.8 14 -10 14 14 SSE 6 9 30.40 1030 10 16 0.00 0.00
2:53 pm 14:53 Sunny 65 18.3 14 -10 14 14 Calm 30.38 1029 10 16 0.00 0.00
3:53 pm 15:53 Sunny 65 18.3 14 -10 14 14 Calm 30.36 1028 10 16 0.00 0.00
4:53 pm 16:53 Sunny 64 17.8 14 -10 14 14 Calm 30.35 1028 10 16 0.00 0.00
5:53 pm 17:53 Clear 62 16.7 15 -9.4 16 16 Calm 30.36 1028 10 16 0.00 0.00
6:53 pm 18:53 Clear 58 14.4 16 -8.9 19 19 W 6 9 30.37 1029 10 16 0.00 0.00
7:53 pm 19:53 Clear 54 12.2 18 -7.8 24 24 W 5 7 30.37 1029 10 16 0.00 0.00
8:53 pm 20:53 Clear 50 10 17 -8.3 27 27 NNW 5 7 30.38 1029 10 16 0.00 0.00
9:53 pm 21:53 Clear 49 9.4 16 -8.9 27 27 WNW 7 11 30.39 1029 10 16 0.00 0.00
10:53 pm 22:53 Clear 49 9.4 15 -9.4 26 26 WNW 8 13 30.38 1029 10 16 0.00 0.00
11:53 pm 23:53 Clear 48 8.9 15 -9.4 27 27 NNW 6 9 30.38 1029 10 16 0.00 0.00

Powered by AerisWeather